Theta_e
328 327 328 328 327 326 325 325 326 326 328 326 328 329 329 329 330 327 330 326 324 322 315 309 309 316 319 317 316 317 318 318
326 326 327 327 326 325 325 325 325 325 325 326 326 328 327 329 328 328 329 328 323 319 315 311 313 318 320 318 318 318 318 318
326 325 324 325 325 324 324 325 325 324 323 323 324 325 327 327 327 327 328 327 323 319 318 316 317 319 321 320 319 318 318 318
327 325 323 324 324 324 324 324 324 322 322 322 324 324 326 326 326 325 327 326 325 321 320 319 320 319 322 320 319 317 317 317
327 325 322 323 323 324 324 324 323 323 321 323 324 325 326 326 327 325 325 327 325 322 324 323 322 321 322 320 319 317 317 316
327 325 323 322 324 323 323 324 323 323 322 322 324 324 325 325 325 325 325 325 326 325 324 324 323 323 322 320 319 317 318 316
326 324 322 322 323 324 324 323 323 323 321 321 323 322 322 323 323 323 320 320 322 325 324 323 324 322 318 318 317 317 316 315
326 324 322 322 322 323 324 324 324 323 322 321 321 322 321 322 322 321 320 319 319 321 323 323 323 320 319 319 319 317 317 317
326 324 322 322 322 323 324 324 324 323 323 322 321 321 321 320 321 320 319 319 319 319 318 320 319 319 320 320 318 318 319 319
326 325 323 323 322 322 323 324 324 323 323 322 321 321 320 320 320 319 319 319 318 317 317 316 317 317 317 317 318 319 318 319
327 325 324 323 323 322 323 323 324 324 324 323 321 320 320 319 319 318 318 317 317 316 316 316 314 314 315 314 316 319 319 319
326 326 324 324 323 322 322 322 322 323 324 323 322 320 319 319 319 318 317 317 318 318 316 316 315 314 314 317 318 318 318 319
326 325 325 324 323 323 322 321 321 322 322 323 322 321 320 319 318 317 316 315 316 317 317 315 315 315 317 318 318 318 319 319
322 325 326 324 323 323 322 322 321 321 322 323 323 322 320 319 319 317 317 317 315 316 316 316 316 315 315 316 317 317 318 319
321 324 324 325 325 324 323 322 322 321 321 321 323 322 321 320 320 318 317 318 318 316 316 316 316 316 316 316 316 315 315 316
320 320 322 321 325 325 324 323 322 322 321 321 321 322 321 320 320 319 319 318 318 317 317 317 316 316 316 316 316 315 316 317
318 318 318 319 320 324 325 324 323 322 322 321 321 321 322 320 320 319 319 319 319 318 317 317 317 317 317 317 317 317 318 317
317 316 317 318 317 316 318 325 324 323 323 322 322 321 322 321 320 320 320 320 320 320 321 319 318 317 318 318 319 320 317 310
315 314 315 314 312 312 314 321 324 324 323 323 323 322 322 322 321 321 321 321 320 321 320 319 317 314 313 316 318 315 306 298
Wind_Speed
21 26 31 30 27 22 19 18 15 16 12 10 9 12 10 10 32 33 30 39 44 45 44 46 47 46 39 35 36 30 28 24
16 23 30 29 25 23 23 21 18 16 15 13 12 10 14 12 26 37 40 45 39 41 42 48 42 44 39 40 37 33 27 24
10 19 24 28 28 25 24 22 19 17 15 15 14 18 13 16 17 41 38 43 39 39 38 42 43 38 38 41 37 34 30 29
15 16 21 24 27 27 27 24 20 16 15 14 14 17 16 18 19 31 42 44 41 37 43 42 42 41 39 43 39 32 25 30
16 15 16 22 24 26 25 23 20 18 14 16 17 18 15 16 22 25 38 42 40 42 44 44 43 42 40 44 41 35 31 27
21 19 20 22 27 28 25 23 21 19 15 16 20 17 17 24 22 31 32 35 40 41 42 37 41 40 42 43 40 35 34 32
15 14 20 20 26 24 25 25 23 19 17 16 19 20 22 24 26 28 29 30 34 38 41 43 40 37 35 36 34 35 33 31
18 18 16 22 25 25 25 27 24 23 21 20 20 22 24 28 28 27 27 27 28 34 43 42 43 37 35 34 26 18 24 23
20 19 17 24 27 26 24 24 23 24 24 24 24 26 27 25 28 29 29 31 31 34 30 34 35 38 35 32 31 25 21 19
18 17 18 24 27 29 28 26 23 25 24 24 24 28 28 27 25 27 28 28 29 36 34 32 34 34 34 30 28 28 25 24
14 16 16 25 27 28 30 29 26 26 24 26 24 28 31 30 28 27 25 27 30 32 34 32 35 33 30 31 34 30 28 28
7 15 19 24 26 28 29 31 27 26 26 25 24 26 29 32 34 31 31 31 30 32 33 33 34 33 34 36 37 33 28 29
12 11 13 23 25 27 29 30 30 29 28 27 27 27 27 29 31 34 34 35 34 31 33 36 37 35 35 33 35 34 33 30
13 5 6 8 24 25 27 30 32 32 31 28 28 29 30 29 32 32 33 32 38 37 36 36 36 36 37 39 38 37 33 29
14 8 8 4 10 16 30 31 33 35 35 33 29 30 31 31 33 33 33 33 33 36 36 38 39 40 41 43 42 42 40 38
13 13 10 10 10 17 18 21 31 31 33 35 35 30 30 31 33 35 34 34 33 33 34 34 37 38 39 39 39 38 35 31
11 12 11 10 16 5 19 22 21 28 33 34 35 36 32 33 33 33 33 34 33 34 34 36 38 37 34 35 36 35 34 31
8 9 9 10 14 16 15 20 23 26 25 28 32 34 36 35 35 34 34 33 31 31 31 32 34 34 35 36 33 31 28 24
8 6 7 15 17 23 21 6 25 26 25 26 28 32 33 31 32 31 30 30 32 32 31 29 28 21 19 25 28 24 22 21
Wind_Direction
168 159 165 168 170 171 166 172 172 180 176 192 190 201 204 182 193 195 174 162 168 167 169 169 170 167 171 178 175 174 174 160
150 149 162 166 168 169 166 169 175 182 188 190 199 192 200 188 166 168 168 172 170 166 169 170 171 171 174 181 174 172 172 167
153 152 158 167 169 175 165 172 174 182 197 212 208 204 197 194 154 169 161 168 170 168 172 172 175 171 177 181 176 170 172 176
169 172 172 169 169 176 165 173 175 188 195 196 208 208 200 189 167 141 160 173 177 169 177 176 178 179 180 179 178 173 172 178
169 175 174 172 172 178 168 169 170 183 188 196 204 187 175 181 183 148 161 170 175 179 180 182 182 184 181 182 182 181 177 181
179 181 168 167 170 177 174 174 172 183 184 198 189 176 181 171 166 170 168 174 176 178 185 185 187 185 186 184 183 179 186 188
177 157 153 160 170 174 175 177 174 182 175 185 174 167 160 165 164 165 165 165 173 181 179 178 180 182 179 177 176 186 190 195
162 160 165 167 172 175 172 180 176 185 175 175 180 171 167 167 164 166 164 165 164 170 182 181 183 184 187 188 192 207 203 205
167 165 166 172 173 177 173 175 175 186 184 179 181 181 175 170 170 169 170 169 171 172 169 171 176 189 194 187 192 211 221 219
169 161 173 173 174 180 175 173 176 187 187 185 185 182 178 174 175 179 177 175 172 174 174 173 178 184 185 191 206 213 225 235
171 172 173 178 176 178 177 177 176 183 190 190 188 188 191 186 179 182 183 184 176 177 185 189 189 192 202 209 217 221 225 233
244 185 176 174 176 178 178 181 178 182 190 190 189 189 193 197 194 190 191 191 193 191 192 192 198 199 204 213 220 226 230 239
198 194 188 171 177 181 181 181 184 189 187 191 192 197 197 198 196 198 194 195 194 196 199 200 203 205 213 222 225 231 234 239
24 96 185 224 177 181 185 185 185 187 189 191 190 195 198 200 208 204 197 199 203 204 205 204 210 215 223 229 235 240 243 246
42 38 51 216 251 224 187 191 187 186 189 192 193 194 196 199 206 206 204 203 205 206 208 211 216 219 224 229 235 241 245 249
16 32 26 12 235 216 245 206 191 190 191 193 197 196 196 200 201 206 209 211 212 216 212 217 222 224 226 229 233 239 239 234
18 30 29 347 0 269 215 216 222 197 197 200 195 194 192 199 200 201 205 208 208 216 219 224 227 229 231 235 237 231 230 229
95 29 12 12 8 345 342 211 209 215 222 204 196 192 195 197 200 201 204 204 205 209 211 214 218 223 227 228 227 223 211 198
37 44 29 1 4 358 355 351 209 213 218 215 209 196 193 194 195 198 201 205 206 210 208 205 203 200 199 210 215 194 172 166